GFSNIL_sfc_wetblb_000.txt.gz
Wetbulb
74.69 72.83 72.91 73.48 71.41 70.47 70.35 70.88 73.05 72.24 72.41 71.79 71.73 71.61 71.71 70.43 69.79 69.91 69.31 68.53 68.56 68.53
74.38 73.73 73.57 73.82 73.64 70.86 73.57 70.15 70.92 71.49 71.37 71.74 71.29 71.26 71.44 69.67 69.35 68.87 68.66 68.52 68.29 66.36
73.58 73.39 73.79 73.38 72.61 72.75 72.79 72.73 71.90 71.37 70.90 70.89 70.66 70.65 69.69 69.74 68.28 68.62 67.96 67.70 67.77 67.63
71.84 72.06 72.63 71.92 71.98 72.38 73.24 73.07 72.23 71.48 70.71 70.17 69.39 69.94 69.31 69.05 69.05 66.81 68.10 68.09 66.94 66.44
72.45 72.32 72.48 72.05 71.87 72.86 72.11 72.61 71.79 71.36 70.52 69.97 69.27 69.45 68.55 67.82 68.09 67.30 66.56 66.86 66.50 65.50
71.99 71.66 71.85 72.03 72.39 72.23 71.90 71.19 70.95 71.11 69.62 69.23 69.15 68.79 68.79 68.11 67.53 67.41 66.82 66.91 65.58 65.24
71.40 71.67 71.46 72.23 72.70 72.02 71.67 71.29 71.58 70.55 69.89 69.16 68.99 68.86 67.96 67.63 67.08 66.36 66.52 66.65 65.45 64.86
72.32 72.20 72.09 71.91 71.81 71.44 71.44 71.22 71.37 70.27 69.75 69.74 68.99 67.15 69.00 67.60 67.25 66.57 65.85 66.02 64.97 64.64
71.91 71.37 70.94 71.78 72.03 71.58 71.60 71.88 70.73 69.59 69.35 69.14 67.75 62.92 64.73 65.25 66.33 66.06 65.22 64.30 64.79 64.61
71.57 71.21 71.57 71.32 71.18 71.35 71.68 71.13 70.38 69.74 69.10 68.50 68.50 60.11 61.34 63.64 64.36 64.36 64.24 64.61 64.45 63.17
71.12 70.82 71.50 71.30 71.07 71.38 71.28 70.60 69.30 68.77 68.97 68.40 66.88 59.30 59.18 61.17 63.92 64.12 64.53 64.89 64.09 63.02
70.92 70.74 70.96 70.71 70.43 71.24 70.72 69.51 69.31 68.84 68.31 66.98 67.09 59.00 57.58 59.35 63.53 63.19 63.30 65.24 64.12 64.11
71.41 71.50 71.07 70.86 70.29 69.18 71.26 68.86 66.88 66.66 67.76 65.24 67.84 57.94 57.30 59.87 59.54 59.51 61.24 63.89 64.19 59.93
72.12 72.45 72.66 72.40 70.20 69.47 67.35 66.64 67.22 67.26 67.31 67.58 65.84 63.88 58.32 56.26 60.78 60.10 61.52 60.22 60.30 63.30

GFSNIL_sfc_wetblb_006.txt.gz
Wetbulb
63.26 62.05 61.92 63.28 63.70 60.31 61.53 63.55 63.97 63.64 64.02 64.36 64.10 64.67 64.74 63.95 62.91 63.37 62.95 62.00 61.60 61.14
62.96 64.37 65.05 64.81 63.02 61.71 63.77 63.94 63.67 64.19 63.86 64.04 64.96 64.30 63.91 64.01 64.72 62.26 62.17 62.08 62.04 60.70
64.41 64.29 64.58 63.90 62.92 63.99 63.00 63.41 63.27 63.73 63.87 64.23 64.23 63.88 63.18 62.48 62.48 61.86 61.64 61.97 61.90 60.98
65.47 64.81 64.14 63.79 63.37 63.48 63.60 64.68 65.10 64.81 64.30 63.62 63.58 63.93 63.65 63.10 62.56 62.12 61.70 62.10 61.52 61.03
66.43 65.15 64.17 63.84 63.75 63.59 63.95 63.53 63.24 63.36 63.40 63.42 64.12 63.77 63.25 62.99 62.83 62.05 61.12 61.04 60.25 60.58
63.39 63.23 63.69 63.49 63.37 63.42 63.05 62.67 62.76 62.02 61.70 62.76 62.74 62.70 63.00 62.82 62.91 62.39 61.98 61.27 60.32 60.12
62.56 62.77 63.46 63.68 63.70 63.46 63.18 62.87 62.33 62.31 63.29 63.75 62.85 62.74 62.87 62.80 62.84 61.93 61.62 61.05 60.70 60.71
64.25 63.93 63.34 63.63 64.17 63.53 63.73 63.44 63.22 63.64 63.42 63.31 63.27 64.29 63.33 62.88 61.83 60.80 60.17 61.01 61.01 61.00
65.11 64.42 64.42 65.21 64.29 63.64 63.77 63.18 63.44 63.52 63.18 61.91 63.29 62.73 62.24 61.12 59.07 59.17 58.95 58.72 59.01 59.72
65.25 64.88 65.46 65.54 64.08 63.84 63.46 62.73 63.18 63.40 61.80 61.82 62.04 60.82 60.07 62.68 58.31 57.00 56.84 57.16 57.73 58.86
65.70 65.08 65.56 64.61 64.01 63.82 63.95 63.94 63.66 62.10 62.21 61.79 61.78 60.14 59.15 60.68 57.63 57.19 57.06 57.85 58.21 57.49
65.93 65.35 64.79 63.81 63.75 64.35 63.74 62.88 62.38 62.43 61.81 60.36 61.37 58.96 57.43 57.97 56.94 56.79 56.07 55.62 57.19 57.67
65.63 65.13 64.20 64.27 64.49 65.18 63.93 63.63 63.07 61.46 61.10 59.86 60.48 57.95 55.74 56.44 56.64 53.91 55.26 55.92 56.45 56.65
65.41 65.01 64.77 65.08 64.87 63.82 62.97 60.52 60.06 61.21 60.90 61.37 59.59 58.66 55.02 54.20 54.75 55.96 55.09 54.34 54.23 53.47

GFSNIL_sfc_wetblb_009.txt.gz
Wetbulb
61.07 60.40 60.75 60.69 61.73 61.17 62.02 63.01 62.95 63.11 62.85 62.33 62.96 63.45 63.35 62.84 62.49 62.13 61.86 60.74 60.40 59.96
61.05 61.01 60.90 62.51 63.08 60.23 60.84 63.58 63.16 62.96 62.92 63.03 63.53 63.55 62.52 62.36 62.37 62.22 61.93 61.00 60.79 59.91
62.09 62.37 63.36 63.64 62.01 61.63 62.66 62.66 62.92 62.57 62.92 62.33 63.29 63.22 61.65 61.25 61.88 61.26 61.00 60.96 60.83 60.23
62.39 63.51 63.64 63.13 62.50 62.50 62.35 61.95 62.47 62.18 62.69 63.03 62.66 62.29 62.04 62.04 62.04 60.95 60.61 60.69 60.69 60.70
63.54 63.33 63.38 62.71 62.68 62.33 62.23 62.95 63.90 63.81 63.29 62.76 62.76 62.65 62.53 61.89 62.39 61.69 60.84 60.74 60.51 60.37
64.12 63.94 63.47 63.49 63.12 62.63 62.52 62.64 62.25 61.98 61.29 60.83 61.22 61.86 61.69 61.99 61.87 61.37 61.44 61.30 60.06 59.52
64.66 64.97 64.50 64.37 63.57 62.94 62.68 62.37 62.35 61.34 61.14 61.31 61.95 62.23 61.83 61.84 61.31 61.30 61.47 61.17 59.86 59.58
65.06 64.61 64.52 64.41 63.93 63.41 63.49 63.44 63.23 62.07 61.91 62.40 63.10 63.38 61.96 61.79 61.92 61.23 60.29 59.90 59.70 60.07
64.59 63.71 63.60 64.05 63.92 63.75 63.73 63.54 63.40 62.33 62.47 62.16 63.47 61.96 62.39 63.59 60.66 59.55 58.80 57.72 57.31 57.72
64.83 64.33 64.04 64.38 64.23 63.76 63.53 63.27 63.01 62.26 62.37 62.18 62.01 60.18 60.28 62.65 59.29 57.69 56.65 55.72 56.02 57.32
65.11 65.01 64.39 64.19 64.19 63.87 63.82 62.85 62.36 62.08 62.46 61.45 62.81 58.76 59.55 60.87 59.98 57.31 56.35 56.64 56.96 55.66
65.45 64.68 63.94 63.34 63.80 64.40 63.11 63.10 62.71 62.14 61.28 61.40 62.50 59.95 58.10 58.73 57.82 56.36 56.12 55.17 55.60 56.24
65.03 64.06 63.28 63.70 63.88 63.49 63.80 63.32 62.74 62.43 61.90 60.33 60.91 57.66 55.90 56.12 56.34 54.51 53.56 55.27 56.81 55.75
64.13 64.30 63.75 63.39 63.38 63.71 62.61 61.23 60.51 61.00 60.81 60.69 59.71 58.47 54.74 54.08 54.90 54.35 54.88 53.86 53.59 53.05

GFSNIL_sfc_wetblb_015.txt.gz
Wetbulb
76.47 75.06 74.29 73.73 72.23 71.80 71.46 70.40 71.47 71.54 71.76 71.94 70.72 70.47 70.71 69.98 69.78 70.29 69.38 69.47 68.84 67.15
75.92 75.47 74.25 73.46 72.12 71.67 71.73 70.11 71.21 71.37 71.40 70.74 69.61 70.24 70.71 69.30 69.62 69.91 69.97 69.53 69.67 68.21
75.09 73.07 74.29 72.85 70.28 71.16 71.13 70.74 70.91 70.97 70.36 69.63 69.90 69.95 70.35 69.14 69.22 69.22 69.05 68.76 69.23 69.03
73.60 72.98 71.45 71.21 70.04 68.06 70.56 69.96 70.27 70.38 69.78 69.62 69.74 69.70 69.59 69.67 69.34 68.55 69.13 69.22 68.84 68.72
72.73 69.42 71.12 65.74 68.77 69.83 68.79 69.17 69.71 69.69 69.20 69.35 69.04 69.73 69.32 68.89 68.24 68.32 68.18 68.35 68.81 68.40
71.64 69.08 68.23 69.11 67.75 68.49 68.64 67.98 68.47 68.18 68.25 67.98 68.57 69.26 69.84 68.91 68.44 68.54 68.08 68.36 68.35 68.20
72.02 70.89 69.30 66.54 66.43 65.14 65.61 66.60 67.08 66.95 67.93 68.44 69.06 69.07 69.05 68.13 68.32 68.70 68.38 68.34 68.34 68.44
72.02 71.26 69.55 68.12 66.79 65.74 64.49 65.26 65.48 65.99 67.14 67.55 66.35 67.37 67.82 68.14 68.57 69.00 68.62 68.70 68.65 68.81
71.72 69.86 69.12 68.65 68.26 66.76 64.97 66.03 66.18 65.53 66.18 66.09 66.13 63.08 62.55 66.19 68.58 69.16 68.56 67.93 68.37 68.74
71.24 69.29 69.13 68.88 67.79 66.94 64.22 64.44 66.34 66.41 66.83 66.92 68.25 61.38 60.80 63.08 67.67 68.28 68.21 68.79 67.77 67.29
70.36 69.69 69.24 69.40 67.84 67.30 67.60 63.71 65.23 66.96 66.96 67.25 68.38 60.85 59.66 61.52 66.29 67.94 65.51 66.50 66.95 65.98
70.42 69.76 68.91 68.46 66.78 66.30 66.88 66.61 67.72 66.99 66.84 68.13 68.70 58.88 58.13 61.62 66.39 66.18 65.71 66.73 65.88 64.73
70.76 69.84 68.76 66.94 66.59 67.95 68.44 67.51 66.55 67.25 67.73 65.01 68.13 60.01 56.72 61.96 66.01 65.29 63.34 66.43 64.43 57.86
70.03 69.00 66.94 67.08 67.66 68.24 67.53 66.77 65.31 66.50 67.35 68.39 66.16 65.41 56.88 55.05 65.41 63.73 63.95 63.57 62.66 62.83

GFSNIL_sfc_wetblb_021.txt.gz
Wetbulb
80.98 77.34 76.88 77.82 75.51 72.97 72.48 73.63 78.31 75.69 74.74 73.35 73.78 73.40 73.10 70.84 70.26 71.90 70.14 70.18 70.73 68.51
80.50 79.99 77.34 79.10 79.15 75.77 77.18 73.57 74.86 75.39 74.05 73.82 73.06 73.51 72.79 70.26 71.11 71.17 71.18 71.39 71.38 69.24
80.20 80.61 80.32 80.39 79.73 78.33 78.07 76.24 76.58 74.50 73.75 73.44 73.60 72.97 72.62 71.86 72.49 71.19 70.06 68.42 71.18 71.05
79.63 79.09 80.05 79.32 79.38 78.80 78.56 77.54 76.02 75.11 74.88 73.36 72.51 72.30 73.02 72.17 71.47 70.87 71.51 71.06 70.22 69.78
80.11 79.36 78.83 79.10 79.24 79.25 77.74 77.70 76.37 75.54 74.54 72.51 70.79 69.55 69.50 70.87 69.89 70.57 70.00 70.63 70.97 69.86
79.69 79.19 78.76 79.25 79.48 78.95 77.97 74.81 75.06 74.92 73.00 72.39 70.25 69.04 71.52 71.63 70.61 70.22 70.67 70.62 70.10 69.95
79.68 79.61 79.11 79.58 79.41 79.06 77.38 75.65 74.95 74.56 73.84 71.99 71.08 70.57 71.06 71.01 70.44 70.35 70.37 69.99 70.30 69.85
80.21 80.23 80.12 79.20 79.31 78.86 76.77 75.89 74.92 74.03 73.49 72.14 69.34 68.77 70.13 70.37 70.08 70.46 69.71 69.68 71.06 71.11
80.60 80.01 79.64 79.23 78.64 77.87 76.46 74.70 74.09 73.45 71.78 70.39 66.40 63.46 64.80 68.73 68.99 70.35 69.79 70.21 69.70 70.65
80.46 79.73 79.23 78.58 77.98 76.94 75.34 73.80 72.79 71.68 71.07 67.72 69.24 61.64 63.17 65.63 69.26 70.03 70.26 70.88 70.86 69.81
80.51 79.57 78.63 77.02 76.45 75.46 73.85 73.59 72.10 71.22 70.25 70.25 71.04 61.53 61.15 63.72 68.74 69.96 70.02 70.19 71.32 71.01
79.48 79.15 77.83 76.00 75.29 74.13 73.29 72.74 71.49 70.43 70.36 69.65 72.02 60.37 59.91 63.17 68.21 68.05 69.65 71.07 71.65 70.71
79.53 78.44 76.16 75.73 75.13 74.46 73.00 71.84 71.06 70.03 70.10 66.83 71.38 60.24 58.01 61.31 68.36 68.19 67.46 71.03 71.54 63.22
77.73 77.80 76.75 74.34 74.74 72.77 70.61 70.31 69.86 69.91 69.81 69.50 70.01 69.48 56.72 56.83 68.18 66.82 67.20 69.48 68.86 67.27

GFSNIL_sfc_wetblb_024.txt.gz
Wetbulb
78.49 78.47 77.29 77.72 77.05 74.80 74.25 74.50 74.86 75.31 74.62 75.31 73.59 73.93 72.73 72.59 70.98 71.00 70.70 70.16 71.05 69.70
78.52 77.81 77.24 77.88 77.44 76.79 75.51 77.65 74.80 74.90 74.48 73.87 73.71 73.50 72.41 69.92 70.09 70.66 71.44 70.78 71.74 70.07
78.98 78.32 77.81 77.95 77.60 75.83 78.05 77.32 75.66 74.96 74.37 73.11 73.20 72.94 71.75 70.83 72.03 69.65 70.82 70.48 70.48 70.20
78.92 78.98 78.07 77.63 77.40 76.77 77.11 76.66 75.31 74.61 73.46 72.70 72.44 72.86 71.61 70.94 71.79 70.55 70.44 69.67 70.04 70.31
78.94 78.80 78.32 77.18 78.16 77.88 76.78 77.43 76.14 74.36 73.30 72.68 71.98 71.96 70.85 69.87 70.11 69.90 69.47 69.62 69.82 69.66
78.34 78.24 77.88 78.01 77.08 77.68 77.25 76.03 74.28 74.37 73.12 72.60 71.56 71.05 70.83 71.05 70.31 69.43 68.80 69.36 69.41 68.92
77.86 77.86 77.65 77.83 77.67 77.50 77.75 76.07 74.87 74.10 73.35 72.77 72.14 71.12 70.45 70.80 70.66 69.97 69.66 70.90 70.04 69.50
78.30 78.41 78.27 77.48 77.82 77.40 78.03 76.71 75.23 73.67 73.45 73.15 71.92 71.16 69.77 70.16 70.48 69.96 69.43 70.09 70.33 70.14
77.86 78.68 78.09 77.77 77.47 77.62 77.55 77.02 75.58 73.71 73.04 72.48 71.38 65.53 65.08 69.38 70.04 69.77 69.13 68.09 69.45 69.36
77.74 77.89 77.92 78.22 77.31 77.17 76.79 76.29 75.04 73.35 72.78 72.04 71.39 62.80 62.89 65.69 69.92 69.38 69.06 69.53 69.23 69.15
78.02 78.17 78.05 77.76 77.19 76.52 77.02 76.27 73.89 73.17 72.33 71.52 70.48 60.97 61.19 63.84 68.59 67.83 68.25 69.20 69.45 69.37
78.83 78.48 77.99 77.53 77.00 77.05 76.42 75.04 73.30 71.89 70.84 70.05 68.59 60.11 60.12 62.44 65.68 66.32 67.65 69.10 69.49 69.87
79.76 78.83 78.16 77.92 77.29 77.29 75.59 73.74 73.58 72.06 71.21 66.36 67.81 59.08 58.43 61.23 66.70 66.14 66.33 68.65 69.06 63.65
79.09 78.89 78.82 77.77 76.57 75.62 74.04 72.84 72.21 71.06 69.26 68.07 67.03 66.50 56.86 57.24 66.86 66.45 66.81 67.88 67.97 68.48

GFSNIL_sfc_wetblb_027.txt.gz
Wetbulb
74.49 75.35 72.89 72.77 71.38 69.42 70.84 70.29 70.35 70.74 70.24 68.72 67.27 69.79 68.57 66.83 66.48 66.36 64.45 63.95 63.86 64.39
74.41 74.41 75.18 73.18 73.34 71.32 70.19 71.33 70.99 71.58 70.47 69.57 68.03 68.27 67.79 67.28 66.13 66.44 65.28 64.88 65.74 63.56
75.71 74.80 74.75 73.87 72.77 73.07 70.82 71.78 71.34 71.85 70.72 70.80 69.03 68.85 67.98 66.33 67.70 66.48 66.77 65.06 65.14 65.54
76.41 75.81 74.79 74.75 73.58 72.88 72.50 72.09 71.62 71.78 71.13 69.86 69.91 69.69 68.56 66.36 66.37 66.95 65.81 66.01 65.19 65.46
75.80 76.39 75.22 74.33 73.88 74.32 72.31 72.76 72.47 71.93 71.32 70.03 69.18 69.59 68.46 66.57 67.39 66.63 66.11 65.26 64.22 64.38
75.58 75.87 75.83 74.79 74.74 74.74 73.74 72.74 72.59 72.40 71.19 69.95 69.56 69.26 68.40 67.14 66.05 66.75 66.68 66.17 65.40 65.38
75.75 76.10 76.22 76.13 74.83 74.55 74.88 73.25 72.14 71.85 71.02 70.16 69.66 69.26 68.37 67.35 66.80 66.73 66.08 65.70 66.57 66.51
76.10 76.46 76.37 75.99 75.88 74.50 74.48 74.33 72.67 71.40 70.71 70.31 69.60 69.33 67.94 67.66 67.67 66.91 65.95 66.06 67.24 67.24
75.32 75.96 75.81 75.62 75.53 75.36 74.16 74.68 72.87 70.78 70.77 70.03 70.50 66.55 66.05 67.62 67.04 67.07 66.46 65.44 66.31 67.06
74.81 75.01 75.42 75.59 74.93 74.95 74.31 74.82 73.84 71.73 70.37 70.17 70.15 64.05 64.53 66.29 67.00 66.75 66.30 65.95 67.02 67.17
74.54 74.82 75.63 75.62 74.78 74.58 75.11 74.63 73.97 72.21 71.36 70.66 70.29 63.01 62.26 64.62 65.56 66.15 66.20 67.93 67.81 66.93
74.59 74.75 75.43 75.23 75.01 74.74 74.58 73.65 73.20 72.61 71.67 70.85 67.49 59.97 60.07 61.94 64.51 63.96 64.35 65.31 66.94 66.37
74.57 74.83 75.34 75.37 75.16 74.78 74.42 73.91 72.57 70.98 70.63 66.57 66.69 59.50 57.92 60.30 63.58 62.77 63.63 64.57 66.19 63.41
75.78 75.93 76.04 75.49 75.38 74.82 73.39 72.06 71.61 70.34 69.35 68.34 66.57 62.23 56.44 57.16 64.58 64.22 64.22 64.49 64.86 64.66

GFSNIL_sfc_wetblb_030.txt.gz
Wetbulb
72.42 72.33 71.92 69.99 70.71 71.75 71.52 70.35 70.43 69.99 68.52 66.67 67.54 66.88 66.04 65.01 64.94 64.37 63.27 64.50 62.75 62.20
72.86 73.11 73.01 71.57 70.27 70.25 70.08 69.94 70.37 69.70 68.72 67.12 66.52 67.88 66.41 65.12 64.43 65.41 63.64 62.44 62.15 62.78
72.56 72.95 73.48 72.46 71.15 69.54 69.58 70.04 69.67 69.79 68.95 67.87 66.00 67.66 66.59 65.25 64.92 64.65 64.47 63.97 63.43 62.67
73.24 72.74 72.70 73.61 72.64 71.92 69.74 70.18 69.44 70.36 69.34 68.60 67.13 66.47 66.82 65.23 65.58 64.54 64.69 64.92 63.22 63.09
73.58 73.51 72.90 72.46 73.68 72.54 71.86 70.42 70.56 70.15 69.75 69.35 68.26 67.22 67.49 65.86 65.88 65.40 64.40 64.45 63.84 63.17
74.08 73.98 73.73 73.08 73.08 73.15 72.04 71.31 70.71 70.32 69.98 69.20 68.95 68.20 67.89 67.13 65.73 64.96 65.38 65.01 63.98 63.35
73.81 74.72 74.69 74.13 73.28 73.08 73.28 70.84 71.06 70.59 70.31 69.91 68.98 68.73 68.50 67.29 65.75 65.27 65.65 65.65 65.32 64.28
74.13 74.61 75.09 74.85 74.03 73.37 73.13 73.20 71.32 70.92 70.40 69.88 69.12 68.55 68.09 67.37 66.36 65.30 65.07 64.91 65.41 65.65
74.63 74.39 74.40 74.90 74.97 73.65 73.39 72.94 71.81 70.59 70.21 68.86 69.65 65.79 65.76 67.44 66.62 66.51 65.57 64.56 64.64 65.36
74.56 74.38 74.68 74.85 74.58 74.36 73.14 73.04 71.93 70.31 69.96 69.10 69.54 63.44 64.08 66.16 67.24 66.90 66.67 65.63 64.93 65.29
74.16 74.23 74.68 74.59 74.35 74.43 74.35 72.82 72.63 71.00 70.30 70.01 69.82 62.31 62.35 65.05 67.92 67.32 67.06 66.12 65.56 65.40
74.21 73.70 74.25 74.16 74.14 74.13 74.28 73.47 73.41 72.24 70.70 69.96 69.99 61.12 60.75 63.81 66.52 66.72 66.45 66.83 66.97 67.30
74.01 73.98 73.51 74.33 74.25 74.43 74.53 73.85 73.68 72.44 71.60 68.73 69.76 59.48 58.31 63.64 65.91 65.18 64.94 63.20 64.49 62.30
73.50 73.64 74.12 74.75 74.95 74.40 74.04 73.60 73.33 71.36 70.93 69.62 66.95 61.13 56.67 57.71 64.01 63.97 62.22 62.56 63.47 64.82

GFSNIL_sfc_wetblb_033.txt.gz
Wetbulb
71.46 70.99 70.63 69.30 69.04 70.08 70.63 71.05 71.40 71.55 70.03 66.35 66.21 65.93 64.72 64.47 63.39 63.17 62.62 61.99 61.92 61.48
71.54 71.09 70.67 69.39 69.72 70.29 70.92 71.48 70.44 71.14 69.75 66.91 66.07 65.84 64.75 64.00 63.73 63.76 62.16 62.97 62.16 61.91
71.70 71.75 71.40 70.88 69.74 69.74 69.95 70.24 70.11 70.15 69.19 66.89 65.61 66.29 65.36 63.71 63.56 64.21 63.17 62.07 61.20 61.60
71.83 72.07 72.15 71.66 70.98 70.11 69.41 69.00 69.07 69.74 68.82 67.30 65.16 66.63 65.99 64.67 64.02 63.20 63.36 63.29 62.42 62.21
71.41 71.17 71.50 72.35 72.04 71.06 69.35 69.27 68.77 69.36 68.65 68.02 66.86 65.12 66.66 65.39 65.51 63.98 62.77 63.18 63.01 62.50
71.50 71.53 71.08 71.42 72.30 72.14 70.89 69.15 69.17 69.03 68.95 68.18 67.51 66.08 65.91 66.43 65.45 64.95 64.50 63.29 63.32 63.15
71.44 71.77 71.90 71.84 71.19 72.22 72.54 70.96 69.20 69.21 69.33 69.05 68.64 67.51 66.82 66.26 65.84 65.23 64.94 64.63 64.13 63.49
71.93 72.34 72.50 72.27 71.89 71.80 72.07 72.10 70.99 69.48 69.18 69.42 68.76 68.76 67.47 66.88 66.03 65.22 65.23 64.68 64.92 64.65
72.28 72.67 72.73 72.89 72.76 72.14 71.69 71.78 70.66 70.07 69.57 68.99 69.16 65.63 65.45 67.73 66.85 65.85 65.31 64.76 64.48 64.98
72.11 72.18 72.59 73.39 73.16 72.46 71.59 71.74 70.79 70.32 70.07 69.19 69.46 63.30 63.42 66.18 67.52 66.09 65.68 65.50 66.01 65.45
72.47 72.19 72.59 72.66 73.16 73.32 72.80 71.86 71.56 70.23 70.30 69.64 69.48 62.21 61.71 64.83 67.79 66.43 66.93 66.97 66.28 65.83
73.29 72.86 72.77 72.67 72.82 73.39 73.69 72.77 72.34 71.47 70.02 69.82 69.58 60.39 60.10 63.06 67.35 66.90 66.83 67.26 66.95 66.57
73.44 73.40 73.09 73.39 73.36 73.61 74.01 73.68 73.14 72.27 71.36 68.42 70.11 58.82 58.55 62.78 67.54 66.60 66.51 66.63 66.63 62.92
73.48 73.24 73.57 73.59 73.91 73.75 73.82 73.71 72.96 72.60 72.43 70.56 69.73 62.06 56.86 59.82 67.22 66.95 65.98 65.65 62.42 62.54

GFSNIL_sfc_wetblb_036.txt.gz
Wetbulb
71.23 70.86 70.79 70.33 70.22 70.50 70.71 71.59 72.89 72.72 72.49 70.40 69.24 69.05 67.58 66.36 65.78 66.63 66.25 65.43 65.30 64.71
71.47 71.40 70.88 70.80 70.71 70.61 71.65 72.15 72.15 72.78 72.10 70.07 69.06 68.45 67.23 66.24 65.60 66.25 65.70 65.70 65.61 65.00
71.43 71.67 71.62 71.09 70.27 70.63 71.21 72.21 71.71 72.14 72.09 69.87 68.73 68.31 67.21 66.38 66.50 66.33 65.21 64.82 65.20 64.95
71.48 71.65 71.87 71.15 71.12 70.78 71.02 71.48 71.38 71.59 71.33 70.13 68.43 67.83 67.20 66.65 66.34 65.99 66.13 65.61 64.64 64.82
71.60 71.75 71.35 71.25 71.72 71.48 70.62 70.91 71.07 71.27 70.94 70.13 68.90 68.15 67.49 66.63 66.61 65.89 65.48 65.75 65.04 64.86
71.32 71.30 71.27 71.54 72.07 71.80 70.99 70.52 70.32 70.78 70.37 70.04 69.18 67.38 68.32 67.75 67.22 66.69 66.44 66.06 65.63 65.62
70.83 71.06 71.50 71.95 72.31 72.31 71.77 70.43 70.05 70.08 70.60 70.23 69.65 68.71 67.73 67.91 67.50 67.28 66.96 66.79 66.17 65.85
70.82 71.16 71.38 71.35 71.70 72.38 72.56 71.56 70.38 70.20 70.05 70.33 69.71 69.15 68.44 67.83 67.63 67.15 66.99 67.16 66.86 66.52
71.05 71.25 71.28 71.49 71.32 71.25 72.00 72.33 71.61 70.05 70.11 69.62 69.61 66.02 65.13 67.97 67.71 67.55 67.10 66.58 66.75 67.39
70.85 71.01 71.30 71.84 71.85 71.22 70.84 71.74 71.88 71.18 70.48 69.91 70.13 63.19 63.47 65.68 68.91 68.08 67.51 67.47 67.33 66.62
70.93 70.93 71.52 71.62 71.81 71.89 71.74 71.31 71.41 71.04 71.39 70.78 70.63 62.25 61.79 65.04 69.38 68.66 68.17 67.81 67.40 67.46
71.60 71.13 71.40 71.53 71.97 72.40 72.27 71.94 71.59 71.91 71.18 70.79 71.06 60.98 60.59 63.20 68.94 68.12 67.65 67.62 67.64 67.49
72.09 71.80 71.40 71.69 72.08 72.98 73.23 72.69 72.56 71.87 71.72 68.81 71.14 60.48 58.83 62.50 68.69 67.74 67.49 67.92 67.60 62.85
72.57 72.46 72.44 72.31 72.64 72.61 72.95 73.21 72.99 72.48 72.48 71.30 70.56 68.44 57.24 58.39 68.65 67.94 67.29 67.20 66.72 66.93

GFSNIL_sfc_wetblb_042.txt.gz
Wetbulb
79.74 76.46 76.55 78.26 76.78 76.14 75.60 75.80 77.97 77.86 78.51 78.94 79.06 79.03 79.14 77.48 76.47 76.42 75.30 73.71 73.21 70.94
79.16 78.75 77.13 79.20 79.67 77.36 79.12 76.62 77.49 77.84 78.49 78.67 78.80 79.14 78.93 77.16 76.34 75.94 75.89 74.38 73.65 71.97
78.78 79.36 79.39 79.73 79.59 79.52 79.59 78.95 77.73 77.99 77.82 78.39 78.65 79.16 78.77 77.52 76.91 76.06 75.02 73.64 73.41 73.43
78.74 78.43 79.06 78.33 79.49 79.89 79.92 80.46 78.95 79.14 77.88 77.71 78.49 78.88 78.30 77.95 76.86 75.76 75.39 74.27 73.12 73.46
79.19 78.90 78.38 78.81 79.30 79.91 79.98 80.23 80.19 79.86 78.59 77.70 77.87 78.50 78.07 77.20 76.38 75.61 74.67 74.23 73.40 72.75
78.30 78.25 78.82 79.10 79.41 79.67 79.87 80.18 79.52 79.93 79.73 78.71 78.07 77.86 78.03 77.52 76.97 75.92 75.59 74.84 73.81 72.75
78.14 78.39 78.63 79.25 79.55 79.60 79.94 80.09 79.91 80.22 80.28 79.80 78.78 77.93 77.59 77.40 77.82 77.02 75.99 75.64 74.91 73.85
78.37 78.98 79.33 79.23 79.46 79.75 79.78 79.98 80.17 80.03 79.98 79.50 79.00 77.16 78.50 78.34 77.61 77.87 76.57 76.64 75.58 74.49
78.26 79.15 79.07 79.05 79.22 79.56 79.50 79.67 79.95 79.70 79.52 79.11 77.75 70.05 68.06 75.64 77.92 78.02 77.73 76.70 75.79 76.01
78.44 78.45 78.89 78.85 79.03 79.38 79.15 79.36 79.33 79.28 79.47 79.16 79.27 65.73 65.14 68.25 77.68 77.55 77.97 77.90 77.12 75.04
78.23 78.11 78.72 78.94 78.60 78.96 79.17 78.96 79.07 78.72 79.08 79.02 79.15 64.64 63.03 66.49 76.53 77.90 78.74 78.31 77.93 77.37
78.19 78.03 78.43 78.14 78.22 78.10 77.85 77.57 77.54 77.97 78.04 78.71 79.14 62.74 60.70 65.49 75.21 75.80 77.70 77.95 78.29 77.65
78.21 78.45 78.04 77.90 77.92 77.96 77.61 76.88 76.56 76.89 77.88 72.87 77.96 65.12 58.85 63.66 74.34 74.70 74.83 77.39 77.92 66.52
78.29 79.05 78.32 78.86 78.66 78.41 77.79 77.83 77.34 75.77 76.48 77.48 76.82 76.41 57.89 57.66 72.78 73.61 75.03 74.94 76.02 76.14

GFSNIL_sfc_wetblb_045.txt.gz
Wetbulb
80.21 77.10 76.38 77.69 76.49 75.75 75.52 75.81 81.03 80.82 80.08 79.79 79.61 79.83 81.05 78.24 77.37 78.62 76.29 75.73 75.02 72.13
80.12 79.39 77.54 78.16 79.48 77.33 79.35 76.47 79.14 79.28 79.50 80.12 80.20 80.60 81.06 77.26 78.65 78.68 77.42 77.26 76.53 73.03
80.48 80.55 79.83 79.87 79.85 79.13 79.52 80.95 79.94 79.70 78.98 79.44 80.24 80.55 80.91 78.65 79.46 78.72 76.76 75.45 77.12 75.87
80.32 80.51 80.97 79.80 80.12 80.15 81.27 81.99 80.27 81.09 79.78 79.78 79.71 80.31 80.35 79.87 79.44 78.18 77.87 77.64 77.53 75.90
80.52 80.60 80.30 80.25 80.32 81.14 80.71 81.48 81.79 80.52 80.48 79.88 79.71 80.16 80.12 78.99 77.32 78.22 76.98 76.62 76.62 75.74
79.92 80.30 80.09 80.23 80.86 81.03 80.93 81.15 81.24 80.95 80.59 80.09 79.70 79.76 80.54 79.91 79.23 78.36 78.13 77.59 76.76 75.83
79.77 79.85 80.17 80.45 81.22 80.94 81.39 80.84 81.15 81.20 80.79 80.74 80.45 79.71 79.89 79.65 79.50 78.92 78.43 78.35 77.62 76.81
79.91 80.66 80.96 80.58 80.60 80.94 81.18 81.01 81.35 81.22 81.00 81.23 80.55 79.00 79.34 79.25 79.39 79.36 78.79 78.89 78.49 77.63
79.71 80.48 80.58 80.64 80.58 81.04 80.85 81.13 81.14 80.88 80.62 80.50 79.85 71.38 68.60 75.84 78.78 79.32 79.14 78.60 78.73 78.31
79.68 79.50 80.20 80.69 80.57 80.29 80.38 80.99 80.75 80.58 80.85 80.34 80.66 67.99 66.14 68.48 78.41 79.05 79.01 79.36 79.19 78.34
79.36 79.62 80.21 80.40 80.21 80.68 80.71 80.60 80.43 80.58 80.86 80.57 80.48 67.06 63.09 66.32 77.08 77.98 78.48 78.20 78.24 78.27
79.75 79.56 79.99 79.70 80.21 80.52 80.32 80.29 80.18 80.37 80.52 80.14 80.24 65.01 62.59 65.64 75.82 76.58 76.87 77.28 78.11 77.96
80.10 80.04 79.59 80.20 80.34 80.55 80.51 80.00 79.00 79.66 80.34 76.25 79.95 65.56 60.38 66.08 76.68 75.77 75.43 76.56 76.48 67.81
80.26 80.40 80.55 80.69 80.80 80.46 80.04 78.89 79.31 79.27 79.79 80.23 78.51 77.57 58.85 59.56 74.70 74.33 74.39 75.00 75.64 76.74

GFSNIL_sfc_wetblb_048.txt.gz
Wetbulb
76.88 77.72 74.89 75.80 76.13 74.88 75.57 75.95 78.03 77.47 77.97 78.42 78.05 78.07 79.64 78.95 77.83 77.74 76.85 77.08 74.90 73.00
76.64 76.92 76.94 75.43 77.07 78.05 76.64 77.13 80.25 77.89 77.80 78.46 79.01 78.68 78.52 77.26 77.86 78.02 76.93 75.96 76.34 74.34
77.97 76.73 76.65 77.68 75.64 76.30 78.25 78.97 80.42 78.38 78.50 78.37 78.14 78.90 78.29 77.94 78.07 77.05 77.02 75.64 75.36 74.59
78.14 78.02 77.59 76.27 77.27 76.83 77.66 78.25 80.19 79.48 78.13 77.72 77.94 78.09 78.43 77.44 77.16 77.13 76.18 76.25 75.33 74.26
78.63 78.93 78.37 77.28 77.08 77.84 78.28 78.86 78.73 79.45 78.46 78.03 77.50 78.05 77.90 77.38 76.24 76.80 75.74 75.36 75.63 75.33
78.41 78.60 78.50 78.56 77.90 78.20 77.77 78.53 78.62 79.57 78.37 77.72 77.70 77.29 77.73 77.74 77.39 75.74 76.73 76.21 74.97 74.51
78.22 78.55 78.90 79.03 79.13 78.33 78.59 77.69 78.72 78.63 78.59 78.66 77.96 77.74 77.44 77.53 77.70 77.29 76.70 76.85 76.09 75.45
78.11 78.98 79.03 79.02 79.14 79.28 78.63 78.70 78.33 78.61 78.78 78.24 78.34 78.08 77.31 77.26 77.68 77.51 77.05 76.72 76.82 76.27
77.92 78.00 78.75 78.83 78.85 78.93 79.03 78.69 79.25 78.67 78.63 78.50 78.26 71.96 69.59 74.92 76.97 77.56 77.03 76.54 76.41 76.70
77.89 77.75 78.21 78.83 78.67 78.42 78.47 78.86 78.66 78.74 78.85 78.35 78.59 68.87 67.10 69.02 76.60 76.66 76.93 76.85 76.53 76.17
78.21 77.83 78.50 78.67 78.49 78.56 78.50 78.55 78.47 78.44 78.72 78.53 78.61 68.49 65.20 66.74 75.21 76.12 76.47 76.49 76.55 76.02
78.60 78.08 78.11 78.09 78.45 78.78 78.50 78.54 78.58 78.86 78.76 78.44 78.38 66.41 64.58 65.45 73.79 74.94 75.23 75.73 76.41 76.61
77.89 78.15 77.98 78.18 78.52 79.16 79.11 78.39 78.76 78.66 79.01 75.17 78.71 68.37 62.42 65.28 76.19 74.28 74.27 74.77 74.97 67.54
78.29 77.56 78.79 78.91 79.01 79.03 78.80 78.68 78.32 78.38 78.84 78.99 77.75 77.71 61.01 59.82 76.60 76.08 74.42 73.45 73.10 74.49